LEMUR-2-TRUTNA (42067 NORAD) Tracking and Keplerian Element Data

This shows tracking and keplerian element data for the satellite.

Feedback or suggestion? Click here.




ElementValue
Catalog42067
NameLEMUR-2-TRUTNA
Epoch Orbit6339
Epoch Day104.90495567
Epoch Year2018
RAAN284.7692
Inclination51.6222
Eccentricity0.0008721
Argument of Perigee289.6756
Mean Anonmoly70.253
Mean Motion16.38337775
Decay Rate0.11545946
L11 42067U 98067LC 18104.90495567 .11545946 12401-4 10058-2 0 9991
L22 42067 51.6222 284.7692 0008721 289.6756 70.2530 16.38337775 63396



Live tracking and technical data element details for LEMUR-2-TRUTNA (NORAD 42067). LEMUR-2-TRUTNA can be tracked NOW for your location showing map with azimuth and elevation plus other details from your city location.







IsCatalogInMostPopularTable: catalog: 42067, numindb: 1015
Update: records affected: 1



GetName: 42067 LEMUR-2-TRUTNA

Hit Count: updated at: Thu, 19 Jun 2025 09:18:26 GMT